When you browse on this site, cookies collect data to enhance your experience and personalize the content and advertising you see.
Visit our Privacy Policy to learn more. By continuing to use the site, you agree to this use of cookies and data.
  • en Belgique
  • Liste des pays
  • À 7 jours
  • Température de l'eau
  • Carte satellitaire
  • Carte météo
  • Widgets météo
  • user-avatar
    Se connecter

    Météo par heure à Zakrupe

    Ce jour, 23 Mai, Jeudi

    Heure Température Précipitation Vent Pression Humidité
    00:00 +11°C° 0 mm 1 m/s 743 mmHg 97%
    01:00 +11°C° 0 mm 1 m/s 742 mmHg 97%
    02:00 +10°C° 0 mm 0 m/s 742 mmHg 97%
    03:00 +11°C° 0.1 mm 0 m/s 742 mmHg 96%
    04:00 +11°C° 0.1 mm 0 m/s 741 mmHg 95%
    05:00 +12°C° 0.1 mm 0 m/s 741 mmHg 94%
    06:00 +14°C° 0 mm 0 m/s 741 mmHg 90%
    07:00 +16°C° 0 mm 1 m/s 741 mmHg 86%
    08:00 +19°C° 0 mm 1 m/s 741 mmHg 81%
    09:00 +18°C° 1 mm 2 m/s 741 mmHg 81%
    10:00 +18°C° 1 mm 3 m/s 741 mmHg 81%
    11:00 +19°C° 1 mm 3 m/s 741 mmHg 81%
    12:00 +18°C° 0.3 mm 4 m/s 742 mmHg 80%
    13:00 +16°C° 0.3 mm 5 m/s 742 mmHg 79%
    14:00 +15°C° 0.3 mm 5 m/s 742 mmHg 78%
    15:00 +14°C° 0 mm 5 m/s 743 mmHg 77%
    16:00 +13°C° 0 mm 5 m/s 743 mmHg 75%
    17:00 +12°C° 0 mm 5 m/s 743 mmHg 74%
    18:00 +10°C° 0 mm 4 m/s 744 mmHg 77%
    19:00 +9°C° 0 mm 3 m/s 744 mmHg 80%
    20:00 +8°C° 0 mm 2 m/s 745 mmHg 83%
    21:00 +7°C° 0 mm 2 m/s 745 mmHg 85%
    22:00 +7°C° 0 mm 2 m/s 746 mmHg 87%
    23:00 +6°C° 0 mm 2 m/s 746 mmHg 89%

    Demain, 24 Mai, Vendredi

    Heure Température Précipitation Vent Pression Humidité
    00:00 +5°C° 0 mm 2 m/s 747 mmHg 86%
    01:00 +5°C° 0 mm 2 m/s 747 mmHg 83%
    02:00 +4°C° 0 mm 2 m/s 748 mmHg 80%
    03:00 +5°C° 0 mm 2 m/s 748 mmHg 75%
    04:00 +4°C° 0 mm 3 m/s 748 mmHg 70%
    05:00 +4°C° 0 mm 3 m/s 748 mmHg 65%
    06:00 +7°C° 0 mm 3 m/s 749 mmHg 60%
    07:00 +8°C° 0 mm 3 m/s 749 mmHg 55%
    08:00 +10°C° 0 mm 3 m/s 749 mmHg 50%
    09:00 +11°C° 0 mm 3 m/s 749 mmHg 48%
    10:00 +12°C° 0 mm 3 m/s 749 mmHg 46%
    11:00 +13°C° 0 mm 3 m/s 749 mmHg 44%
    12:00 +13°C° 0 mm 3 m/s 749 mmHg 43%
    13:00 +14°C° 0 mm 3 m/s 749 mmHg 43%
    14:00 +14°C° 0 mm 3 m/s 748 mmHg 43%
    15:00 +14°C° 0 mm 3 m/s 748 mmHg 45%
    16:00 +14°C° 0 mm 3 m/s 748 mmHg 48%
    17:00 +14°C° 0 mm 3 m/s 748 mmHg 50%
    18:00 +13°C° 0 mm 3 m/s 748 mmHg 56%
    19:00 +11°C° 0 mm 3 m/s 748 mmHg 63%
    20:00 +10°C° 0 mm 3 m/s 747 mmHg 70%
    21:00 +9°C° 0 mm 3 m/s 747 mmHg 69%
    22:00 +9°C° 0 mm 3 m/s 747 mmHg 67%
    23:00 +9°C° 0 mm 3 m/s 747 mmHg 66%

    Après-demain, 25 Mai, Samedi

    Heure Température Précipitation Vent Pression Humidité
    00:00 +8°C° 0 mm 4 m/s 747 mmHg 66%
    01:00 +8°C° 0 mm 4 m/s 747 mmHg 65%
    02:00 +8°C° 0 mm 4 m/s 747 mmHg 64%
    03:00 +8°C° 0 mm 4 m/s 746 mmHg 68%
    04:00 +8°C° 0 mm 4 m/s 746 mmHg 71%
    05:00 +8°C° 0 mm 4 m/s 746 mmHg 75%
    06:00 +8°C° 0.7 mm 4 m/s 745 mmHg 79%
    07:00 +10°C° 0.7 mm 3 m/s 745 mmHg 82%
    08:00 +10°C° 0.7 mm 3 m/s 745 mmHg 86%
    09:00 +12°C° 0 mm 4 m/s 744 mmHg 80%
    10:00 +15°C° 0 mm 4 m/s 744 mmHg 75%
    11:00 +17°C° 0 mm 5 m/s 744 mmHg 69%
    12:00 +17°C° 0 mm 5 m/s 743 mmHg 68%
    13:00 +19°C° 0 mm 4 m/s 743 mmHg 68%
    14:00 +19°C° 0 mm 4 m/s 743 mmHg 67%
    15:00 +18°C° 0.3 mm 3 m/s 742 mmHg 74%
    16:00 +17°C° 0.3 mm 3 m/s 741 mmHg 80%
    17:00 +17°C° 0.3 mm 2 m/s 741 mmHg 87%
    18:00 +16°C° 0.1 mm 3 m/s 740 mmHg 88%
    19:00 +16°C° 0.1 mm 3 m/s 740 mmHg 89%
    20:00 +15°C° 0.1 mm 4 m/s 740 mmHg 90%
    21:00 +15°C° 0.2 mm 4 m/s 739 mmHg 92%
    22:00 +14°C° 0.2 mm 4 m/s 739 mmHg 94%
    23:00 +14°C° 0.2 mm 4 m/s 739 mmHg 95%

    26 Mai, Dimanche

    Heure Température Précipitation Vent Pression Humidité
    00:00 +14°C° 1 mm 4 m/s 738 mmHg 96%
    01:00 +14°C° 1 mm 4 m/s 738 mmHg 97%
    02:00 +14°C° 1 mm 3 m/s 738 mmHg 97%
    03:00 +13°C° 0 mm 3 m/s 738 mmHg 97%
    04:00 +13°C° 0 mm 3 m/s 738 mmHg 96%
    05:00 +12°C° 0 mm 3 m/s 738 mmHg 95%
    06:00 +13°C° 0 mm 3 m/s 738 mmHg 89%
    07:00 +14°C° 0 mm 3 m/s 738 mmHg 82%
    08:00 +14°C° 0 mm 4 m/s 739 mmHg 76%
    09:00 +15°C° 0 mm 4 m/s 739 mmHg 69%
    10:00 +17°C° 0 mm 4 m/s 739 mmHg 61%
    11:00 +18°C° 0 mm 4 m/s 739 mmHg 54%
    12:00 +19°C° 0 mm 4 m/s 739 mmHg 54%
    13:00 +19°C° 0 mm 4 m/s 739 mmHg 55%
    14:00 +19°C° 0 mm 4 m/s 739 mmHg 55%
    15:00 +19°C° 0 mm 4 m/s 739 mmHg 57%
    16:00 +19°C° 0 mm 3 m/s 739 mmHg 58%
    17:00 +18°C° 0 mm 3 m/s 739 mmHg 60%
    18:00 +17°C° 0 mm 2 m/s 739 mmHg 66%
    19:00 +15°C° 0 mm 1 m/s 739 mmHg 73%
    20:00 +12°C° 0 mm 0 m/s 739 mmHg 80%
    21:00 +13°C° 0 mm 1 m/s 738 mmHg 82%
    22:00 +12°C° 0 mm 2 m/s 738 mmHg 84%
    23:00 +12°C° 0 mm 2 m/s 738 mmHg 86%

    27 Mai, Lundi

    Heure Température Précipitation Vent Pression Humidité
    00:00 +12°C° 0 mm 2 m/s 738 mmHg 87%
    01:00 +12°C° 0 mm 2 m/s 738 mmHg 89%
    02:00 +12°C° 0 mm 2 m/s 738 mmHg 91%
    03:00 +11°C° 1.3 mm 3 m/s 738 mmHg 92%
    04:00 +10°C° 1.3 mm 3 m/s 738 mmHg 92%
    05:00 +10°C° 1.3 mm 4 m/s 738 mmHg 93%
    06:00 +9°C° 0.3 mm 5 m/s 738 mmHg 90%
    07:00 +9°C° 0.3 mm 5 m/s 738 mmHg 87%
    08:00 +9°C° 0.3 mm 6 m/s 738 mmHg 84%
    09:00 +10°C° 0.4 mm 6 m/s 739 mmHg 82%
    10:00 +10°C° 0.4 mm 7 m/s 739 mmHg 79%
    11:00 +10°C° 0.4 mm 7 m/s 740 mmHg 77%
    12:00 +11°C° 0.2 mm 7 m/s 740 mmHg 70%
    13:00 +12°C° 0.2 mm 7 m/s 741 mmHg 64%
    14:00 +14°C° 0.2 mm 7 m/s 741 mmHg 57%
    15:00 +14°C° 0 mm 6 m/s 742 mmHg 61%
    16:00 +13°C° 0 mm 6 m/s 742 mmHg 66%
    17:00 +13°C° 0 mm 5 m/s 743 mmHg 70%
    18:00 +12°C° 0 mm 4 m/s 743 mmHg 74%
    19:00 +11°C° 0 mm 3 m/s 744 mmHg 78%
    20:00 +10°C° 0 mm 2 m/s 744 mmHg 82%
    21:00 +10°C° 0 mm 2 m/s 745 mmHg 82%
    22:00 +10°C° 0 mm 3 m/s 745 mmHg 82%
    23:00 +10°C° 0 mm 3 m/s 746 mmHg 81%

    28 Mai, Mardi

    Heure Température Précipitation Vent Pression Humidité
    00:00 +9°C° 0 mm 2 m/s 746 mmHg 86%
    01:00 +8°C° 0 mm 2 m/s 747 mmHg 90%
    02:00 +7°C° 0 mm 2 m/s 747 mmHg 95%
    03:00 +8°C° 0 mm 2 m/s 748 mmHg 92%
    04:00 +9°C° 0 mm 2 m/s 748 mmHg 90%
    05:00 +9°C° 0 mm 2 m/s 748 mmHg 88%
    06:00 +12°C° 0 mm 2 m/s 749 mmHg 80%
    07:00 +13°C° 0 mm 3 m/s 749 mmHg 72%
    08:00 +16°C° 0 mm 3 m/s 749 mmHg 64%
    09:00 +17°C° 0 mm 3 m/s 749 mmHg 60%
    10:00 +18°C° 0 mm 3 m/s 749 mmHg 56%
    11:00 +20°C° 0 mm 3 m/s 749 mmHg 52%
    12:00 +20°C° 0 mm 3 m/s 749 mmHg 51%
    13:00 +21°C° 0 mm 2 m/s 749 mmHg 50%
    14:00 +23°C° 0 mm 2 m/s 749 mmHg 49%
    15:00 +23°C° 0 mm 2 m/s 749 mmHg 55%
    16:00 +23°C° 0 mm 2 m/s 749 mmHg 60%
    17:00 +21°C° 0 mm 2 m/s 749 mmHg 65%
    18:00 +20°C° 0 mm 2 m/s 748 mmHg 68%
    19:00 +19°C° 0 mm 2 m/s 748 mmHg 71%
    20:00 +18°C° 0 mm 3 m/s 748 mmHg 74%
    21:00 +17°C° 0 mm 3 m/s 748 mmHg 77%
    22:00 +17°C° 0 mm 3 m/s 748 mmHg 80%
    23:00 +17°C° 0 mm 3 m/s 748 mmHg 82%
    Voir plus